Regional Weather Roundup
Issued by NWS

Home | Current Version | Previous Version | Text Only | Print | Product List | Glossary On
Versions: 1 2 3 4 5 6 7 8 9 10 11 12 13 14 15 16 17 18 19 20 21 22 23 24 25 26 27
000
ASCA42 TJSJ 230810
RWRPR
PUERTO RICO/U.S. VIRGIN ISLANDS HOURLY WEATHER ROUNDUP
NATIONAL WEATHER SERVICE SAN JUAN PR
400 AM AST THU FEB 23 2017

PRZ001>002-007>008-010-230900-
PUERTO RICO

CITY           SKY/WX    TMP DP  RH WIND       PRES   REMARKS
SAN JUAN LMM   MOCLDY    73  72  94 S3        29.87S
PONCE          PTCLDY    70  66  88 CALM      29.91R
CEIBA          PTCLDY    73  72  94 CALM      29.89S
$$

VIZ001>002-230900-
U.S. VIRGIN ISLANDS

CITY           SKY/WX    TMP DP  RH WIND       PRES   REMARKS
CHARLOTTE AMA  PTCLDY    73  70  88 E9        29.86R
CHRISTIANSTED  CLEAR     70  66  88 CALM      29.87S
$$

HOURLY WEATHER ROUNDUP FOR THE NEWS MEDIA

CITY           SKY/WX    TMP DP  RH WIND       PRES   REMARKS
ORLANDO        CLOUDY    65  63  93 VRB6      29.56F
NEW YORK       PTCLDY    40  40 100 SE5       29.89F
NEWARK         PTCLDY    46  41  82 S5        29.88F
CHICAGO        CLEAR     55  49  80 SW10      29.65R
HARTFORD       FOG       38  36  92 CALM      29.88S VSB 1/4
BOSTON         MOCLDY    43  38  82 SW9       29.87F
DALLAS         CLEAR     61  46  57 SE9       29.66F
PHILADELPHIA   FOG       46  46 100 SW7       29.90S VSB 1/4
LOS ANGELES    PTCLDY    54  33  45 NW10      30.07S
WASHINGTON DC  CLOUDY    54  51  90 S5        29.87F



USA.gov is the U.S. government's official web portal to all federal, state and local government web resources and services.